Weather in Evpatoria

Russia / Republic of Crimea     45°11′26″N   33°22′03″E
temp.,
°C
wind,
m/s
gust,
m/s
humid.,
%
clouds,
%
prec.,
mm/h
press.,
hPa
HPBL,
m
1 march, mon
mon100:00+4nw4673100 0.1 1025537
03:00+3nw4573100 0.1 1024335
06:00+3nw237897 0.0 1024196
09:00+4nne227598 0.1 1025278
12:00+5nne0168100 0.1 1026717
15:00+6w126496 0.2 1026808
18:00+6nne455884 0.1 1027998
21:00+3nne577342 0.1 1029295
2 march, tue
tue200:00+2nne44800 0.0 1030166
03:00+2nne348120 0.0 1031126
06:000nne45870 0.0 1031144
09:00+2nne23700 0.0 1032193
12:00+5wnw235522 0.0 10311058
15:00+6w665642 0.0 10291017
18:00+4w67670 0.0 1027875
21:00+4wsw697346 0.0 1026494
3 march, wed
wed300:00+5wsw8127829 0.0 1024521
03:00+6w8137943 0.0 1022536
06:00+5nnw712850 0.0 1022443
09:00+5n7107627 0.0 1024966
12:00+7n786085 0.1 10251269
15:00+8n675056 0.1 10261211
18:00+7nnw46520 0.0 1027643
21:00+5nw34690 0.0 102994
4 march, thu
thu400:00+4ne11670 0.0 102946
03:00+3sse12690 0.0 102879
06:00+3ssw22710 0.0 1027152
09:00+6sw34640 0.0 1026412
12:00+8sw56550 0.0 10251105
15:00+8sw67560 0.0 10231043
18:00+6sw79660 0.0 1021907
21:00+6ssw710750 0.0 1020586
5 march, fri
fri500:00+6ssw811750 0.0 1019532
03:00+6ssw811800 0.0 1018519
06:00+6ssw811823 0.0 1017484
09:00+7ssw811791 0.0 1017641
12:00+9ssw9117315 0.0 1016653
15:00+9ssw9117315 0.0 1015642
18:00+8ssw9128111 0.0 1014507
21:00+8ssw914846 0.0 1014509